Flag Weather past 2 weeks in Charleston, West Virginia, U.S.A.

Now
47 °F

Passing clouds.


Feels Like: 44 °F
Forecast: 36 / 61 °F
Wind: 6 mph from South

Location: Yeager Airport

Current Time: Nov 22, 2014 at 8:29:33 PM

Latest Report: Nov 22, 2014 at 7:54 PM


Visibility: 10 mi

Pressure: 30.18 "Hg

Humidity: 42%

Dew point: 25 °F

Location of CharlestonLocation

Historic Weather in Charleston — Graph

°F

Charleston temperature yesterday

Maximum temperature yesterday: 36 °F (at 2:54 PM)
Minimum temperature yesterday: 22 °F (at 7:54 AM)
Average temperature yesterday: 28 °F

Past Weeks' High & Low Weather Summary

 TemperatureHumidityPressure
High75 °F (Nov 11, 2:54 PM)100% (Nov 16, 11:54 PM)30.53 "Hg (Nov 16, 11:54 PM)
Low13 °F (Nov 19, 6:54 AM)17% (Nov 10, 4:54 PM)29.64 "Hg (Nov 17, 9:01 AM)
Average37 °F62%30.14 "Hg
* Reported Nov 7 6:54 PM — Nov 22 6:54 PM, Charleston, Weather by CustomWeather, © 2014

Note: Actual official high and low records may vary slightly from our data, if they occured in-between our weather recording intervals... More about our weather records

Advertising

Charleston weather history for previous 24 hours

 ConditionsComfort  
Time TempWeatherWind HumidityBarometerVisibility
6:54 PM
Nov 22
50 °FPassing clouds.5 mph38%30.19 "Hg10 mi
5:54 PM54 °FPassing clouds.8 mph30%30.20 "Hg10 mi
4:54 PM58 °FBroken clouds.8 mph28%30.20 "Hg10 mi
3:54 PM60 °FPartly sunny.12 mph28%30.22 "Hg10 mi
2:54 PM60 °FPartly sunny.8 mph27%30.22 "Hg10 mi
1:54 PM60 °FBroken clouds.15 mph28%30.25 "Hg10 mi
12:54 PM60 °FBroken clouds.12 mph27%30.27 "Hg10 mi
11:54 AM58 °FScattered clouds.9 mph27%30.32 "Hg10 mi
10:54 AM46 °FScattered clouds.No wind40%30.35 "Hg10 mi
9:54 AM33 °FScattered clouds.No wind58%30.38 "Hg10 mi
8:54 AM26 °FBroken clouds.No wind77%30.40 "Hg10 mi
7:54 AM21 °FScattered clouds.No wind85%30.41 "Hg10 mi
6:54 AM19 °FPassing clouds.No wind88%30.40 "Hg10 mi
5:54 AM19 °FClear.No wind88%30.40 "Hg10 mi
4:54 AM18 °FClear.3 mph88%30.41 "Hg10 mi
3:54 AM18 °FClear.3 mph84%30.42 "Hg10 mi
2:54 AM19 °FClear.No wind85%30.43 "Hg10 mi
1:54 AM20 °FClear.3 mph78%30.43 "Hg10 mi
12:54 AM21 °FClear.No wind74%30.45 "Hg10 mi
11:54 PM
Nov 21
22 °FClear.No wind72%30.46 "Hg10 mi
10:54 PM23 °FClear.No wind65%30.47 "Hg10 mi
9:54 PM23 °FClear.3 mph72%30.48 "Hg10 mi
8:54 PM25 °FClear.No wind60%30.49 "Hg10 mi
Weather by CustomWeather, © 2014

See weather overviewHow to use our weather pages